This demonstration page uses our WeatherBlox Daily Observations layout. Learn more.

Left ArrowRight Arrow

Hourly Observations for March 2, 2015

Temp ( °F °C ) Dew Point ( °F °C ) Humidity (%) Winds ( mph kmh ) Pressure ( in mb ) Visibility ( mi km ) Precip ( " mm )
12:15 am 00:15 Cloudy with Mist and Fog 32 undefined 32 undefined 100 100 N N/A 30.21 1023 5 8 N/A
12:35 am 00:35 Cloudy with Mist and Fog 32 undefined 32 undefined 100 100 N N/A 30.21 1023 5 8 N/A
12:55 am 00:55 Cloudy 32 undefined 32 undefined 100 100 N N/A 30.18 1022 7 11 N/A
1:15 am 01:15 Cloudy 32 undefined 32 undefined 100 100 N N/A 30.18 1022 7 11 N/A
1:35 am 01:35 Cloudy 32 undefined 32 undefined 100 100 SSE 3 6 30.18 1022 7 11 N/A
1:55 am 01:55 Cloudy 32 undefined 32 undefined 100 100 N N/A 30.18 1022 7 11 N/A
2:15 am 02:15 Cloudy with Mist and Fog 32 undefined 32 undefined 100 100 N N/A 30.18 1022 5 8 N/A
2:35 am 02:35 Cloudy with Mist and Fog 32 undefined 32 undefined 100 100 N N/A 30.15 1021 5 8 N/A
2:55 am 02:55 Cloudy with Mist and Fog 32 undefined 32 undefined 100 100 N N/A 30.12 1020 4 6 N/A
3:15 am 03:15 Cloudy with Mist and Fog 32 undefined 32 undefined 100 100 N N/A 30.12 1020 4 6 N/A
3:35 am 03:35 Cloudy with Mist and Fog 32 undefined 32 undefined 100 100 N N/A 30.12 1020 4 6 N/A
3:55 am 03:55 Cloudy with Mist and Fog 32 undefined 32 undefined 100 100 N N/A 30.12 1020 4 6 N/A
4:15 am 04:15 Cloudy with Mist and Fog 32 undefined 32 undefined 100 100 N N/A 30.12 1020 4 6 N/A
4:35 am 04:35 Cloudy with Mist and Fog 32 undefined 32 undefined 100 100 N N/A 30.12 1020 4 6 N/A
4:55 am 04:55 Cloudy with Mist and Fog 32 undefined 32 undefined 100 100 N N/A 30.12 1020 4 6 N/A
5:15 am 05:15 Cloudy with Mist and Fog 32 undefined 32 undefined 100 100 SW 3 6 30.15 1021 5 8 N/A
5:35 am 05:35 Cloudy with Mist and Fog 32 undefined 32 undefined 100 100 SW 3 6 30.15 1021 5 8 N/A
5:55 am 05:55 Cloudy with Mist and Fog 32 undefined 32 undefined 100 100 SW 3 6 30.15 1021 5 8 N/A
6:15 am 06:15 Cloudy with Mist and Fog 32 undefined 32 undefined 100 100 N N/A 30.15 1021 5 8 N/A
6:35 am 06:35 Cloudy with Mist and Fog 32 undefined 32 undefined 100 100 N N/A 30.15 1021 5 8 N/A
6:55 am 06:55 Cloudy with Mist and Fog 34 1 34 1 100 100 NW 9 15 30.18 1022 5 8 N/A
7:15 am 07:15 Mostly Cloudy 37 3 36 2 93 93 NW 14 22 30.18 1022 10 16 N/A
7:35 am 07:35 Partly Cloudy 41 5 34 1 76 76 NW 24 39 30.18 1022 10 16 0.03 0.76
7:55 am 07:55 Partly Cloudy 39 4 36 2 87 87 NW 16 26 30.21 1023 10 16 0.11 2.79
8:15 am 08:15 Mostly Cloudy 39 4 34 1 81 81 NW 20 31 30.21 1023 10 16 0.02 0.51
8:35 am 08:35 Cloudy 39 4 34 1 81 81 NW 20 31 30.24 1024 10 16 0.04 1.02
8:55 am 08:55 Mostly Cloudy 41 5 32 undefined 70 70 NW 20 31 30.27 1025 10 16 0.06 1.52
9:15 am 09:15 Partly Cloudy 41 5 32 undefined 70 70 NW 22 35 30.27 1025 10 16 0.08 2.03
9:35 am 09:35 Sunny 41 5 28 -2 61 61 NW 20 31 30.30 1026 10 16 0.09 2.29
9:55 am 09:55 Sunny 41 5 28 -2 61 61 NW 25 41 30.30 1026 10 16 0.09 2.29
10:15 am 10:15 Sunny 41 5 28 -2 61 61 NW 26 43 30.30 1026 10 16 N/A
10:35 am 10:35 Sunny 41 5 28 -2 61 61 NW 24 39 30.30 1026 10 16 N/A
10:55 am 10:55 Sunny 41 5 28 -2 61 61 NNW 25 41 30.30 1026 10 16 N/A
11:15 am 11:15 Sunny 41 5 27 -3 57 57 NNW 23 37 30.30 1026 10 16 N/A
11:35 am 11:35 Sunny 41 5 23 -5 49 49 NW 23 37 30.30 1026 10 16 N/A
11:55 am 11:55 Sunny 41 5 23 -5 49 49 NNW 18 30 30.33 1027 10 16 N/A
12:15 pm 12:15 Sunny 41 5 21 -6 45 45 NNW 18 30 30.33 1027 10 16 N/A
12:35 pm 12:35 Sunny 41 5 21 -6 45 45 NW 15 24 30.33 1027 10 16 N/A
12:55 pm 12:55 Sunny 41 5 21 -6 45 45 NNW 18 30 30.33 1027 10 16 N/A
1:15 pm 13:15 Sunny 41 5 19 -7 42 42 NNW 12 19 30.33 1027 10 16 N/A
1:35 pm 13:35 Sunny 41 5 21 -6 45 45 NNW 12 19 30.33 1027 10 16 N/A
2:15 pm 14:15 Sunny 41 5 19 -7 42 42 NNW 10 17 30.33 1027 10 16 N/A
2:35 pm 14:35 Sunny 41 5 19 -7 42 42 N 17 28 30.33 1027 10 16 N/A
2:55 pm 14:55 Sunny 41 5 21 -6 45 45 NW 16 26 30.33 1027 10 16 N/A
3:15 pm 15:15 Sunny 41 5 19 -7 42 42 NNW 14 22 30.33 1027 10 16 N/A
3:35 pm 15:35 Sunny 41 5 19 -7 42 42 NW 15 24 30.33 1027 10 16 N/A
3:55 pm 15:55 Sunny 41 5 19 -7 42 42 N 15 24 30.33 1027 10 16 N/A
4:15 pm 16:15 Sunny 41 5 19 -7 42 42 NW 17 28 30.33 1027 10 16 N/A
4:35 pm 16:35 Sunny 41 5 19 -7 42 42 NNW 12 19 30.36 1028 10 16 N/A
4:55 pm 16:55 Sunny 41 5 19 -7 42 42 NNW 9 15 30.36 1028 10 16 N/A
5:15 pm 17:15 Sunny 41 5 19 -7 42 42 N 10 17 30.36 1028 10 16 N/A
5:35 pm 17:35 Sunny 37 3 19 -7 48 48 N 13 20 30.36 1028 10 16 N/A
5:55 pm 17:55 Sunny 37 3 19 -7 48 48 NNW 9 15 30.39 1029 10 16 N/A
6:15 pm 18:15 Clear 37 3 19 -7 48 48 NNW 9 15 30.39 1029 10 16 N/A
6:35 pm 18:35 Clear 36 2 19 -7 52 52 N 7 11 30.39 1029 10 16 N/A
6:55 pm 18:55 Clear 36 2 19 -7 52 52 N 8 13 30.42 1030 10 16 N/A
7:15 pm 19:15 Clear 36 2 19 -7 52 52 N 9 15 30.42 1030 10 16 N/A
7:35 pm 19:35 Clear 34 1 19 -7 56 56 N 7 11 30.42 1030 10 16 N/A
7:55 pm 19:55 Clear 34 1 19 -7 56 56 N 6 9 30.45 1031 10 16 N/A
8:15 pm 20:15 Clear 34 1 19 -7 56 56 N 6 9 30.45 1031 10 16 N/A
8:35 pm 20:35 Clear 32 undefined 19 -7 60 60 N 7 11 30.45 1031 10 16 N/A
8:55 pm 20:55 Clear 32 undefined 19 -7 60 60 N 8 13 30.45 1031 10 16 N/A
9:15 pm 21:15 Clear 32 undefined 19 -7 60 60 N 6 9 30.45 1031 10 16 N/A
9:35 pm 21:35 Clear 32 undefined 19 -7 60 60 N 5 7 30.45 1031 10 16 N/A
9:55 pm 21:55 Clear 32 undefined 19 -7 60 60 NW 7 11 30.45 1031 10 16 N/A
10:15 pm 22:15 Clear 30 -1 19 -7 64 64 NW 8 13 30.45 1031 10 16 N/A
10:35 pm 22:35 Clear 30 -1 19 -7 64 64 E 5 7 30.48 1032 10 16 N/A
10:55 pm 22:55 Clear 32 undefined 19 -7 60 60 ENE 3 6 30.45 1031 10 16 N/A
11:15 pm 23:15 Clear 32 undefined 19 -7 60 60 NNW 3 6 30.45 1031 10 16 N/A
11:35 pm 23:35 Clear 28 -2 19 -7 69 69 NW 6 9 30.45 1031 10 16 N/A
11:55 pm 23:55 Clear 30 -1 19 -7 64 64 N 7 11 30.45 1031 10 16 N/A

Powered by AerisWeather